TimeEDT,TemperatureF,Dew PointF,Humidity,Sea Level PressureIn,VisibilityMPH,Wind Direction,Wind SpeedMPH,Gust SpeedMPH,PrecipitationIn,Events,Conditions,WindDirDegrees,DateUTC
12:15 AM,72.3,68.9,89,30.00,10.0,Calm,Calm,-,N/A,,Clear,0,2013-08-29 04:15:00
12:35 AM,72.7,63.9,74,30.00,10.0,Calm,Calm,-,N/A,,Clear,0,2013-08-29 04:35:00
12:55 AM,71.1,64.2,79,30.00,10.0,Calm,Calm,-,N/A,,Clear,0,2013-08-29 04:55:00
1:15 AM,71.4,63.9,77,30.00,10.0,Calm,Calm,-,N/A,,Clear,0,2013-08-29 05:15:00
1:35 AM,71.6,64.2,77,29.99,10.0,Calm,Calm,-,N/A,,Clear,0,2013-08-29 05:35:00
1:55 AM,72.7,64.6,76,29.99,10.0,South,3.5,-,N/A,,Clear,190,2013-08-29 05:55:00
2:15 AM,72.9,65.1,77,29.99,10.0,South,3.5,-,N/A,,Clear,190,2013-08-29 06:15:00
2:35 AM,72.7,65.5,78,29.98,10.0,SSW,3.5,-,N/A,,Clear,200,2013-08-29 06:35:00
2:55 AM,72.7,65.3,78,29.98,10.0,Calm,Calm,-,N/A,,Clear,0,2013-08-29 06:55:00
3:15 AM,72.3,65.3,78,29.97,10.0,SSW,3.5,-,N/A,,Clear,200,2013-08-29 07:15:00
3:35 AM,72.1,65.3,79,29.97,10.0,SW,3.5,-,N/A,,Clear,220,2013-08-29 07:35:00
3:55 AM,72.0,65.3,79,29.97,10.0,SSW,3.5,-,N/A,,Clear,210,2013-08-29 07:55:00
4:15 AM,72.0,65.1,79,29.97,10.0,Calm,Calm,-,N/A,,Clear,0,2013-08-29 08:15:00
4:35 AM,71.8,64.9,79,29.97,10.0,Calm,Calm,-,N/A,,Clear,0,2013-08-29 08:35:00
4:55 AM,71.6,64.9,79,29.97,10.0,SSW,3.5,-,N/A,,Clear,210,2013-08-29 08:55:00
5:15 AM,71.6,65.1,80,29.96,10.0,SSW,3.5,-,N/A,,Clear,210,2013-08-29 09:15:00
5:35 AM,71.1,65.3,82,29.97,10.0,Calm,Calm,-,N/A,,Clear,0,2013-08-29 09:35:00
5:55 AM,71.1,64.9,81,29.97,10.0,Calm,Calm,-,N/A,,Clear,0,2013-08-29 09:55:00
6:15 AM,71.1,64.9,81,29.97,10.0,Calm,Calm,-,N/A,,Clear,0,2013-08-29 10:15:00
6:35 AM,70.9,65.3,82,29.97,10.0,Calm,Calm,-,N/A,,Clear,0,2013-08-29 10:35:00
6:55 AM,70.7,66.6,87,29.97,10.0,Calm,Calm,-,N/A,,Clear,0,2013-08-29 10:55:00
7:15 AM,70.7,68.9,94,29.98,10.0,Calm,Calm,-,N/A,,Clear,0,2013-08-29 11:15:00
7:35 AM,71.2,69.3,93,29.98,10.0,Calm,Calm,-,N/A,,Clear,0,2013-08-29 11:35:00
7:55 AM,72.1,69.4,91,29.98,7.0,WSW,3.5,-,N/A,,Clear,240,2013-08-29 11:55:00
8:15 AM,73.6,68.0,83,29.98,7.0,West,4.6,-,N/A,,Clear,260,2013-08-29 12:15:00
8:35 AM,75.0,66.7,75,29.98,10.0,West,4.6,-,N/A,,Clear,280,2013-08-29 12:35:00
8:55 AM,75.9,67.1,74,29.99,10.0,West,4.6,-,N/A,,Clear,260,2013-08-29 12:55:00
9:15 AM,77.0,67.5,72,29.98,10.0,West,5.8,-,N/A,,Scattered Clouds,270,2013-08-29 13:15:00
9:35 AM,78.3,67.8,70,29.99,10.0,West,6.9,-,N/A,,Clear,270,2013-08-29 13:35:00
9:55 AM,79.7,68.0,67,29.98,10.0,West,5.8,-,N/A,,Clear,270,2013-08-29 13:55:00
10:15 AM,81.5,68.5,65,29.98,10.0,NW,5.8,-,N/A,,Clear,310,2013-08-29 14:15:00
10:35 AM,82.6,68.5,62,29.98,10.0,NW,4.6,-,N/A,,Clear,310,2013-08-29 14:35:00
10:55 AM,84.6,69.1,60,29.98,7.0,West,3.5,-,N/A,,Clear,280,2013-08-29 14:55:00
11:15 AM,85.1,68.4,57,29.97,10.0,WSW,4.6,-,N/A,,Clear,250,2013-08-29 15:15:00
11:35 AM,86.0,68.2,55,29.97,10.0,WNW,4.6,-,N/A,,Clear,290,2013-08-29 15:35:00
11:55 AM,87.1,68.2,53,29.97,10.0,WSW,6.9,-,N/A,,Clear,250,2013-08-29 15:55:00
12:15 PM,87.8,68.0,52,29.96,10.0,WNW,9.2,-,N/A,,Clear,300,2013-08-29 16:15:00
12:35 PM,88.9,68.0,50,29.95,10.0,WSW,9.2,-,N/A,,Clear,250,2013-08-29 16:35:00
12:55 PM,89.8,68.2,49,29.95,10.0,West,10.4,-,N/A,,Clear,270,2013-08-29 16:55:00
1:15 PM,89.8,67.6,48,29.94,10.0,NW,9.2,16.1,N/A,,Clear,320,2013-08-29 17:15:00
1:35 PM,90.5,67.1,46,29.94,10.0,WSW,6.9,-,N/A,,Clear,250,2013-08-29 17:35:00
1:55 PM,90.9,67.1,45,29.93,10.0,WNW,6.9,17.3,N/A,,Scattered Clouds,290,2013-08-29 17:55:00
2:15 PM,91.6,66.2,43,29.93,10.0,NW,9.2,-,N/A,,Scattered Clouds,310,2013-08-29 18:15:00
2:35 PM,91.8,65.7,42,29.93,10.0,NW,6.9,-,N/A,,Clear,310,2013-08-29 18:35:00
2:55 PM,92.3,66.0,42,29.92,10.0,West,10.4,-,N/A,,Clear,270,2013-08-29 18:55:00
3:15 PM,92.5,66.4,42,29.91,10.0,WNW,8.1,-,N/A,,Clear,290,2013-08-29 19:15:00
3:35 PM,92.7,65.3,40,29.91,10.0,West,6.9,-,N/A,,Scattered Clouds,280,2013-08-29 19:35:00
3:55 PM,92.5,65.1,40,29.90,10.0,NW,6.9,-,N/A,,Clear,320,2013-08-29 19:55:00
4:15 PM,93.0,65.7,40,29.90,10.0,NW,5.8,-,N/A,,Scattered Clouds,320,2013-08-29 20:15:00
4:35 PM,91.4,65.5,42,29.90,10.0,NW,5.8,-,N/A,,Mostly Cloudy,320,2013-08-29 20:35:00
4:55 PM,92.1,65.3,41,29.90,10.0,NW,5.8,-,N/A,,Scattered Clouds,320,2013-08-29 20:55:00
5:15 PM,92.8,66.0,41,29.90,10.0,NNE,4.6,-,N/A,,Mostly Cloudy,20,2013-08-29 21:15:00
5:35 PM,92.3,65.5,41,29.89,10.0,North,3.5,-,N/A,,Scattered Clouds,350,2013-08-29 21:35:00
5:55 PM,91.4,65.3,42,29.89,10.0,NW,4.6,-,N/A,,Clear,310,2013-08-29 21:55:00
6:15 PM,91.4,65.1,42,29.89,10.0,NW,4.6,-,N/A,,Clear,320,2013-08-29 22:15:00
6:35 PM,90.5,67.6,47,29.89,10.0,NNW,3.5,-,N/A,,Clear,340,2013-08-29 22:35:00
6:55 PM,89.2,69.6,52,29.89,10.0,Calm,Calm,-,N/A,,Clear,0,2013-08-29 22:55:00
7:15 PM,88.2,68.9,53,29.89,10.0,West,3.5,-,N/A,,Clear,280,2013-08-29 23:15:00
7:35 PM,86.4,71.2,61,29.90,10.0,Calm,Calm,-,N/A,,Clear,0,2013-08-29 23:35:00
7:55 PM,84.0,72.0,67,29.90,10.0,Calm,Calm,-,N/A,,Clear,0,2013-08-29 23:55:00
8:15 PM,82.9,71.8,69,29.90,10.0,Calm,Calm,-,N/A,,Clear,0,2013-08-30 00:15:00
8:35 PM,82.0,73.4,75,29.91,10.0,Calm,Calm,-,N/A,,Clear,0,2013-08-30 00:35:00
8:55 PM,81.1,73.4,77,29.92,10.0,Calm,Calm,-,N/A,,Clear,0,2013-08-30 00:55:00
9:15 PM,80.6,72.9,77,29.93,10.0,Calm,Calm,-,N/A,,Clear,0,2013-08-30 01:15:00
9:35 PM,80.1,78.1,94,29.93,7.0,Calm,Calm,-,N/A,,Scattered Clouds,0,2013-08-30 01:35:00
9:55 PM,79.7,77.9,94,29.93,7.0,Calm,Calm,-,N/A,,Scattered Clouds,0,2013-08-30 01:55:00
10:15 PM,79.7,77.9,94,29.93,7.0,Calm,Calm,-,N/A,,Scattered Clouds,0,2013-08-30 02:15:00
10:35 PM,79.0,77.4,95,29.92,7.0,Calm,Calm,-,N/A,,Clear,0,2013-08-30 02:35:00
10:55 PM,78.8,77.4,95,29.92,7.0,Calm,Calm,-,N/A,,Clear,0,2013-08-30 02:55:00
11:15 PM,78.1,77.0,96,29.92,7.0,Calm,Calm,-,N/A,,Clear,0,2013-08-30 03:15:00
11:35 PM,77.9,76.6,96,29.92,7.0,Calm,Calm,-,N/A,,Clear,0,2013-08-30 03:35:00
11:55 PM,77.9,77.0,97,29.92,7.0,Calm,Calm,-,N/A,,Clear,0,2013-08-30 03:55:00